Regional Weather Roundup
Issued by NWS

Home | Current Version | Previous Version | Text Only | Print | Product List | Glossary On
Versions: 1 2 3 4 5 6 7 8 9 10 11 12 13 14 15 16 17 18 19 20 21 22 23 24 25 26 27 28 29 30 31 32 33 34 35 36 37 38 39 40 41 42 43 44 45 46 47 48 49 50
000
ASCA44 KEWX 210820
RWRMX

LATIN AMERICA AND CARIBBEAN REGIONAL WEATHER ROUNDUP
NATIONAL WEATHER SERVICE AUSTIN/SAN ANTONIO TX
300 AM CDT THU AUG 21 2014

NOTE: "FAIR" INDICATED FEW OR NO CLOUDS BELOW 12,000 FEET WITH NO
SIGNIFICANT WEATHER AND/OR OBSTRUCTIONS TO VISIBILITY.

BAJA CALIFORNIA

CITY           SKY/WX    TMP DP  RH WIND       PRES   REMARKS
TIJUANA        CLEAR     66  57  72 W6        29.96S

NORTHWESTERN MEXICO

CITY           SKY/WX    TMP DP  RH WIND       PRES   REMARKS

NORTHEASTERN MEXICO

CITY           SKY/WX    TMP DP  RH WIND       PRES   REMARKS
MONTERREY      CLEAR     81  68  65 E12       29.95S
REYNOSA        CLEAR     79  72  78 SE12      29.97S
CD. VICTORIA   CLEAR     79  72  78 S12       30.01F

WESTERN MEXICO

CITY           SKY/WX    TMP DP  RH WIND       PRES   REMARKS
GUADALAJARA    MOCLDY    63  59  88 NW5       30.20F
MAZATLAN       MOCLDY    73  72  94 N9        29.88F
P. VALLARTA    CLOUDY    79  73  83 CALM      29.89F
ZACATECAS      RAIN      55  48  76 S18       30.34F

CENTRAL MEXICO

CITY           SKY/WX    TMP DP  RH WIND       PRES   REMARKS
MEXICO CITY    MOCLDY    61  52  72 W6        30.33F
MORELIA        MOCLDY    57  55  94 CALM      30.28F
QUERETARO      MOCLDY    59  57  94 CALM      30.34F
S. LUIS POTOSI PTCLDY    61  57  88 CALM      30.30F
TOLUCA         CLOUDY    50  46  87 CALM      30.41F

SOUTHERN MEXICO

CITY           SKY/WX    TMP DP  RH WIND       PRES   REMARKS
ACAPULCO       LGT RAIN  77  75  94 N8        29.90F

YUCATAN PENINSULA

CITY           SKY/WX    TMP DP  RH WIND       PRES   REMARKS
CANCUN         CLEAR     79  72  78 N3        30.01F
COZUMEL        PTCLDY    75  75 100 CALM      30.02S
MERIDA         CLEAR     77  72  83 E9        30.02F
TAPACHULA      MOCLDY    75  73  94 CALM      29.92F

CENTRAL AMERICA

CITY           SKY/WX    TMP DP  RH WIND       PRES   REMARKS

CARIBBEAN

CITY           SKY/WX    TMP DP  RH WIND       PRES   REMARKS
ARUBA          PTCLDY    81  75  83 E12       29.89S
CURACAO        PTCLDY    81  75  83 E9        29.92S
KINGSTON       PTCLDY    82  73  74 N6        29.94S
NASSAU         PTCLDY    82  75  78 E5        30.08F
SAN JUAN       PTCLDY    82  77  83 NE13G18   29.98F HX  91
SANTO DOMINGO  PTCLDY    75  73  94 N6        29.97F
ST. CROIX      PTCLDY    81  73  78 NE9       29.97S
ST. MAARTEN    MOCLDY    82  75  78 NE12      29.94S

$$



USA.gov is the U.S. government's official web portal to all federal, state and local government web resources and services.